Location: Grandview
(34.8900°N, 117.1058°W)
Time: 11:38:12
(UTC-07:00)

Envisat - Pass Details

Date: 11 October 2017
Orbit: 764 x 766 km, 98.2° (Epoch: 18 October)

Event Time Altitude Azimuth Distance (km) Brightness Sun altitude
Exits shadow 19:10:56 10° 55° (NE) 2,297 5.0 -11.6°
Drops below altitude 10° 19:11:03 10° 54° (NE) 2,303 5.0 -11.6°
Sets 19:15:45 0° 14° (NNE) 3,235 6.1 -12.6°
